,,,PA_Meas_PMT16A,,PR_Meas_QMR101_102,,RH_Meas_QMH101,,SR_Meas_QMS101,,TA_Meas_QMH101,,GenWind,,GenWind,
date,time,status,PA,status,PR,status,RH,status,SR,status,TA,status,DirAvg,status,SpdAvg,
2009-05-01, 00:00:05,VALID,1010.74,VALID,0,VALID,86.2244,VALID,0,VALID,23.8286,VALID,69,VALID,0.486328,
2009-05-01, 00:01:05,VALID,1010.73,VALID,0,VALID,86.2168,VALID,0,VALID,23.8286,VALID,69,VALID,0.217969,
2009-05-01, 00:02:05,VALID,1010.75,VALID,0,VALID,86.2244,VALID,0,VALID,23.8091,VALID,63,VALID,0.207031,
2009-05-01, 00:03:05,VALID,1010.74,VALID,0,VALID,86.2244,VALID,0,VALID,23.8091,VALID,65,VALID,0.454297,
2009-05-01, 00:04:05,VALID,1010.73,VALID,0,VALID,86.2168,VALID,0,VALID,23.7896,VALID,69,VALID,0.24375,
2009-05-01, 00:05:05,VALID,1010.71,VALID,0,VALID,86.2473,VALID,0,VALID,23.7896,VALID,90,VALID,0.558984,
2009-05-01, 00:06:04,VALID,1010.69,VALID,0,VALID,86.2854,VALID,0,VALID,23.7896,VALID,102,VALID,0.643359,
2009-05-01, 00:07:04,VALID,1010.65,VALID,0,VALID,86.3235,VALID,0,VALID,23.8109,VALID,108,VALID,0.0804688,
2009-05-01, 00:08:04,VALID,1010.62,VALID,0,VALID,86.354,VALID,0,VALID,23.7896,VALID,100,VALID,0.405469,
2009-05-01, 00:09:04,VALID,1010.58,VALID,0,VALID,86.3769,VALID,0,VALID,23.7914,VALID,51,VALID,0.239453,
2009-05-01, 00:10:04,VALID,1010.61,VALID,0,VALID,86.3769,VALID,0,VALID,23.7914,VALID,12,VALID,0.728906,
2009-05-01, 00:11:04,VALID,1010.61,VALID,0,VALID,86.3693,VALID,0,VALID,23.7914,VALID,24,VALID,0.601172,
2009-05-01, 00:12:04,VALID,1010.61,VALID,0,VALID,86.3998,VALID,0,VALID,23.7507,VALID,31,VALID,0.328125,
2009-05-01, 00:13:04,VALID,1010.62,VALID,0,VALID,86.3998,VALID,0,VALID,23.7507,VALID,31,VALID,0.220703,
2009-05-01, 00:14:04,VALID,1010.61,VALID,0,VALID,86.4227,VALID,0,VALID,23.7312,VALID,28,VALID,0.265625,
2009-05-01, 00:15:04,VALID,1010.63,VALID,0,VALID,86.4532,VALID,0,VALID,23.772,VALID,27,VALID,0.009375,
2009-05-01, 00:16:04,VALID,1010.62,VALID,0,VALID,86.476,VALID,0,VALID,23.7525,VALID,27,VALID,0.0269531,
2009-05-01, 00:17:04,VALID,1010.62,VALID,0,VALID,86.5218,VALID,0,VALID,23.7525,VALID,97,VALID,0.541406,
2009-05-01, 00:18:04,VALID,1010.62,VALID,0,VALID,86.5447,VALID,0,VALID,23.7525,VALID,102,VALID,0.589453,
2009-05-01, 00:19:04,VALID,1010.6,VALID,0,VALID,86.5904,VALID,0,VALID,23.7312,VALID,102,VALID,0.323828,
2009-05-01, 00:20:04,VALID,1010.6,VALID,0,VALID,86.6286,VALID,0,VALID,23.7117,VALID,90,VALID,0.501562,
2009-05-01, 00:21:04,VALID,1010.61,VALID,0,VALID,86.6819,VALID,0,VALID,23.7312,VALID,58,VALID,0.56875,
2009-05-01, 00:22:04,VALID,1010.6,VALID,0,VALID,86.7353,VALID,0,VALID,23.733,VALID,20,VALID,0.565234,
2009-05-01, 00:23:04,VALID,1010.61,VALID,0,VALID,86.7506,VALID,0,VALID,23.733,VALID,17,VALID,0.386719,
2009-05-01, 00:24:04,VALID,1010.59,VALID,0,VALID,86.7506,VALID,0,VALID,23.733,VALID,9,VALID,0.566797,
2009-05-01, 00:25:04,VALID,1010.58,VALID,0,VALID,86.7658,VALID,0,VALID,23.6922,VALID,22,VALID,0.347266,
2009-05-01, 00:26:04,VALID,1010.57,VALID,0,VALID,86.7963,VALID,0,VALID,23.7135,VALID,21,VALID,0.325781,
2009-05-01, 00:27:04,VALID,1010.54,VALID,0,VALID,86.8497,VALID,0,VALID,23.6727,VALID,357,VALID,0.636328,
2009-05-01, 00:28:04,VALID,1010.54,VALID,0,VALID,86.9107,VALID,0,VALID,23.7135,VALID,17,VALID,0.210156,
2009-05-01, 00:29:04,VALID,1010.5,VALID,0,VALID,86.926,VALID,0,VALID,23.694,VALID,17,VALID,0.015625,
2009-05-01, 00:30:04,VALID,1010.51,VALID,0,VALID,86.9412,VALID,0.105969,VALID,23.6727,VALID,20,VALID,0.107031,
2009-05-01, 00:31:04,VALID,1010.51,VALID,0,VALID,86.9565,VALID,0,VALID,23.6727,VALID,20,VALID,0.233203,
2009-05-01, 00:32:04,VALID,1010.49,VALID,0,VALID,87.0022,VALID,0,VALID,23.6745,VALID,20,VALID,0.00195313,
2009-05-01, 00:33:04,VALID,1010.49,VALID,0,VALID,87.0556,VALID,0,VALID,23.655,VALID,20,VALID,0,
2009-05-01, 00:34:04,VALID,1010.51,VALID,0,VALID,87.0937,VALID,0,VALID,23.6356,VALID,20,VALID,0,
2009-05-01, 00:35:04,VALID,1010.5,VALID,0,VALID,87.1852,VALID,0,VALID,23.6161,VALID,20,VALID,0,
2009-05-01, 00:36:04,VALID,1010.47,VALID,0,VALID,87.2462,VALID,0.105969,VALID,23.5753,VALID,37,VALID,0,
2009-05-01, 00:37:04,VALID,1010.44,VALID,0,VALID,87.3225,VALID,0,VALID,23.5558,VALID,63,VALID,0,
2009-05-01, 00:38:04,VALID,1010.43,VALID,0,VALID,87.3988,VALID,0,VALID,23.5558,VALID,68,VALID,0,
2009-05-01, 00:39:04,VALID,1010.39,VALID,0,VALID,87.4521,VALID,0,VALID,23.5363,VALID,68,VALID,0,
2009-05-01, 00:40:04,VALID,1010.38,VALID,0,VALID,87.5436,VALID,0,VALID,23.5381,VALID,68,VALID,0,
2009-05-01, 00:41:04,VALID,1010.39,VALID,0,VALID,87.5894,VALID,0,VALID,23.5381,VALID,68,VALID,0,
2009-05-01, 00:42:04,VALID,1010.35,VALID,0,VALID,87.6809,VALID,0,VALID,23.5381,VALID,68,VALID,0,
2009-05-01, 00:43:04,VALID,1010.35,VALID,0,VALID,87.7572,VALID,0,VALID,23.5169,VALID,51,VALID,0,
2009-05-01, 00:44:04,VALID,1010.35,VALID,0,VALID,87.8334,VALID,0,VALID,23.5169,VALID,49,VALID,0,
2009-05-01, 00:45:04,VALID,1010.36,VALID,0,VALID,87.9173,VALID,0,VALID,23.5169,VALID,49,VALID,0,
2009-05-01, 00:46:04,VALID,1010.37,VALID,0,VALID,87.9859,VALID,0.105969,VALID,23.5169,VALID,31,VALID,0,
2009-05-01, 00:47:04,VALID,1010.33,VALID,0,VALID,88.0546,VALID,0,VALID,23.5186,VALID,5,VALID,0,
2009-05-01, 00:48:04,VALID,1010.34,VALID,0,VALID,88.1537,VALID,0,VALID,23.5381,VALID,5,VALID,0,
2009-05-01, 00:49:04,VALID,1010.36,VALID,0,VALID,88.23,VALID,0,VALID,23.5186,VALID,5,VALID,0,
2009-05-01, 00:50:04,VALID,1010.37,VALID,0,VALID,88.2833,VALID,0,VALID,23.4992,VALID,5,VALID,0,
2009-05-01, 00:51:04,VALID,1010.37,VALID,0,VALID,88.3139,VALID,0,VALID,23.4779,VALID,5,VALID,0,
2009-05-01, 00:52:04,VALID,1010.37,VALID,0,VALID,88.352,VALID,0,VALID,23.4779,VALID,5,VALID,0,
2009-05-01, 00:53:04,VALID,1010.38,VALID,0,VALID,88.3977,VALID,0,VALID,23.4584,VALID,5,VALID,0,
2009-05-01, 00:54:04,VALID,1010.38,VALID,0,VALID,88.4359,VALID,0,VALID,23.4584,VALID,9,VALID,0,
2009-05-01, 00:55:04,VALID,1010.37,VALID,0,VALID,88.4816,VALID,0,VALID,23.4602,VALID,100,VALID,0,
2009-05-01, 00:56:04,VALID,1010.36,VALID,0,VALID,88.4969,VALID,0,VALID,23.4389,VALID,110,VALID,0,
2009-05-01, 00:57:04,VALID,1010.37,VALID,0,VALID,88.5579,VALID,0,VALID,23.4602,VALID,110,VALID,0,
2009-05-01, 00:58:04,VALID,1010.36,VALID,0,VALID,88.596,VALID,0,VALID,23.4389,VALID,98,VALID,0,
2009-05-01, 00:59:04,VALID,1010.38,VALID,0,VALID,88.6646,VALID,0,VALID,23.4602,VALID,87,VALID,0,
2009-05-01, 01:00:04,VALID,1010.38,VALID,0,VALID,88.6799,VALID,0,VALID,23.4602,VALID,24,VALID,0,
2009-05-01, 01:01:04,VALID,1010.39,VALID,0,VALID,88.7104,VALID,0,VALID,23.4389,VALID,46,VALID,0,
2009-05-01, 01:02:04,VALID,1010.38,VALID,0,VALID,88.7333,VALID,0,VALID,23.4602,VALID,46,VALID,0,
2009-05-01, 01:03:04,VALID,1010.37,VALID,0,VALID,88.7485,VALID,0,VALID,23.4602,VALID,46,VALID,0,
2009-05-01, 01:04:04,VALID,1010.39,VALID,0,VALID,88.7714,VALID,0,VALID,23.4602,VALID,51,VALID,0,
2009-05-01, 01:05:04,VALID,1010.39,VALID,0,VALID,88.8095,VALID,0,VALID,23.4602,VALID,73,VALID,0,
2009-05-01, 01:06:04,VALID,1010.39,VALID,0,VALID,88.8324,VALID,0,VALID,23.4602,VALID,73,VALID,0,
2009-05-01, 01:07:04,VALID,1010.35,VALID,0,VALID,88.8705,VALID,0,VALID,23.4389,VALID,73,VALID,0,
2009-05-01, 01:08:04,VALID,1010.37,VALID,0,VALID,88.8705,VALID,0,VALID,23.4797,VALID,87,VALID,0.0652344,
2009-05-01, 01:09:04,VALID,1010.36,VALID,0,VALID,88.901,VALID,0,VALID,23.4797,VALID,84,VALID,0.658594,
2009-05-01, 01:10:04,VALID,1010.31,VALID,0,VALID,88.9087,VALID,0,VALID,23.4584,VALID,88,VALID,0.785547,
2009-05-01, 01:11:04,VALID,1010.29,VALID,0,VALID,88.9163,VALID,0,VALID,23.4797,VALID,87,VALID,0.794141,
2009-05-01, 01:12:04,VALID,1010.27,VALID,0,VALID,88.9315,VALID,0,VALID,23.4797,VALID,87,VALID,0.625,
2009-05-01, 01:13:04,VALID,1010.24,VALID,0,VALID,88.9697,VALID,0,VALID,23.4797,VALID,82,VALID,1.25195,
2009-05-01, 01:14:04,VALID,1010.23,VALID,0,VALID,89.0078,VALID,0,VALID,23.4797,VALID,81,VALID,0.976953,
2009-05-01, 01:15:04,VALID,1010.25,VALID,0,VALID,89.0459,VALID,0,VALID,23.4584,VALID,86,VALID,0.828516,
2009-05-01, 01:16:04,VALID,1010.26,VALID,0,VALID,89.0764,VALID,0,VALID,23.4602,VALID,93,VALID,0.640234,
2009-05-01, 01:17:04,VALID,1010.25,VALID,0,VALID,89.1222,VALID,0,VALID,23.4797,VALID,102,VALID,1.00352,
2009-05-01, 01:18:04,VALID,1010.29,VALID,0,VALID,89.1984,VALID,0,VALID,23.4602,VALID,88,VALID,0.948047,
2009-05-01, 01:19:04,VALID,1010.24,VALID,0,VALID,89.2747,VALID,0,VALID,23.4602,VALID,92,VALID,0.898047,
2009-05-01, 01:20:04,VALID,1010.22,VALID,0,VALID,89.4196,VALID,0,VALID,23.4602,VALID,102,VALID,0.667578,
2009-05-01, 01:21:04,VALID,1010.21,VALID,0,VALID,89.4958,VALID,0,VALID,23.4389,VALID,84,VALID,1.03945,
2009-05-01, 01:22:04,VALID,1010.2,VALID,0,VALID,89.5492,VALID,0,VALID,23.4602,VALID,87,VALID,0.860937,
2009-05-01, 01:23:04,VALID,1010.18,VALID,0,VALID,89.6026,VALID,0,VALID,23.4407,VALID,90,VALID,0.749219,
2009-05-01, 01:24:04,VALID,1010.17,VALID,0,VALID,89.656,VALID,0,VALID,23.4389,VALID,86,VALID,0.7,
2009-05-01, 01:25:04,VALID,1010.13,VALID,0,VALID,89.7246,VALID,0,VALID,23.4602,VALID,88,VALID,0.474609,
2009-05-01, 01:26:04,VALID,1010.14,VALID,0,VALID,89.7399,VALID,0,VALID,23.4407,VALID,77,VALID,0.538281,
2009-05-01, 01:27:04,VALID,1010.12,VALID,0,VALID,89.7932,VALID,0,VALID,23.4797,VALID,80,VALID,0.956641,
2009-05-01, 01:28:04,VALID,1010.13,VALID,0,VALID,89.8161,VALID,0.105969,VALID,23.4584,VALID,41,VALID,0.619531,
2009-05-01, 01:29:04,VALID,1010.08,VALID,0,VALID,89.839,VALID,0,VALID,23.4602,VALID,34,VALID,0.280078,
2009-05-01, 01:30:04,VALID,1010.07,VALID,0,VALID,89.8619,VALID,0,VALID,23.4602,VALID,34,VALID,0.187109,
2009-05-01, 01:31:04,VALID,1010.06,VALID,0,VALID,89.9076,VALID,0,VALID,23.4602,VALID,25,VALID,0.504687,
2009-05-01, 01:32:04,VALID,1010.01,VALID,0,VALID,89.9381,VALID,0,VALID,23.4407,VALID,37,VALID,0.239844,
2009-05-01, 01:33:04,VALID,1009.98,VALID,0,VALID,89.9839,VALID,0,VALID,23.4194,VALID,37,VALID,0.141797,
2009-05-01, 01:34:04,VALID,1009.98,VALID,0,VALID,89.9839,VALID,0,VALID,23.4212,VALID,37,VALID,0.242188,
2009-05-01, 01:35:04,VALID,1009.97,VALID,0,VALID,90.0678,VALID,0,VALID,23.4017,VALID,67,VALID,0.516797,
2009-05-01, 01:36:04,VALID,1009.97,VALID,0,VALID,90.1288,VALID,0,VALID,23.423,VALID,66,VALID,0.893359,
2009-05-01, 01:37:04,VALID,1009.97,VALID,0,VALID,90.1593,VALID,0,VALID,23.3823,VALID,69,VALID,0.715625,
2009-05-01, 01:38:04,VALID,1009.96,VALID,0,VALID,90.2127,VALID,0,VALID,23.3823,VALID,53,VALID,0.433203,
2009-05-01, 01:39:04,VALID,1009.98,VALID,0,VALID,90.266,VALID,0,VALID,23.3823,VALID,59,VALID,0.371875,
2009-05-01, 01:40:04,VALID,1010,VALID,0,VALID,90.2965,VALID,0,VALID,23.3823,VALID,82,VALID,0.370703,
2009-05-01, 01:41:04,VALID,1009.98,VALID,0,VALID,90.327,VALID,0,VALID,23.3823,VALID,82,VALID,0,
2009-05-01, 01:42:04,VALID,1009.94,VALID,0,VALID,90.3423,VALID,0,VALID,23.3628,VALID,82,VALID,0.0285156,
2009-05-01, 01:43:04,VALID,1009.93,VALID,0,VALID,90.3804,VALID,0,VALID,23.3415,VALID,100,VALID,0.614062,
2009-05-01, 01:44:04,VALID,1009.93,VALID,0,VALID,90.4338,VALID,0,VALID,23.3628,VALID,87,VALID,0.364062,
2009-05-01, 01:45:04,VALID,1009.93,VALID,0,VALID,90.4948,VALID,0,VALID,23.3433,VALID,87,VALID,0.135156,
2009-05-01, 01:46:04,VALID,1009.92,VALID,0,VALID,90.5177,VALID,0,VALID,23.3628,VALID,22,VALID,0.510938,
2009-05-01, 01:47:04,VALID,1009.9,VALID,0,VALID,90.5634,VALID,0,VALID,23.3628,VALID,22,VALID,0,
2009-05-01, 01:48:04,VALID,1009.92,VALID,0,VALID,90.9066,VALID,0,VALID,23.3433,VALID,22,VALID,0.0683594,
2009-05-01, 01:49:04,VALID,1009.88,VALID,0,VALID,91.1049,VALID,0,VALID,23.3433,VALID,22,VALID,0,
2009-05-01, 01:50:04,VALID,1009.88,VALID,0,VALID,91.1354,VALID,0,VALID,23.3238,VALID,22,VALID,0,
2009-05-01, 01:51:04,VALID,1009.86,VALID,0,VALID,91.1278,VALID,0,VALID,23.3043,VALID,22,VALID,0,
2009-05-01, 01:52:04,VALID,1009.81,VALID,0,VALID,91.1583,VALID,0,VALID,23.3238,VALID,95,VALID,0.315625,
2009-05-01, 01:53:04,VALID,1009.79,VALID,0,VALID,91.1811,VALID,0,VALID,23.3238,VALID,121,VALID,0.431641,
2009-05-01, 01:54:04,VALID,1009.77,VALID,0,VALID,91.1888,VALID,0,VALID,23.3238,VALID,121,VALID,0.38125,
2009-05-01, 01:55:04,VALID,1009.79,VALID,0,VALID,91.1888,VALID,0,VALID,23.3043,VALID,138,VALID,0.542969,
2009-05-01, 01:56:04,VALID,1009.8,VALID,0,VALID,91.1735,VALID,0,VALID,23.2848,VALID,138,VALID,0.461719,
2009-05-01, 01:57:04,VALID,1009.8,VALID,0,VALID,91.1659,VALID,0,VALID,23.2848,VALID,138,VALID,0.223047,
2009-05-01, 01:58:04,VALID,1009.81,VALID,0,VALID,91.1659,VALID,0,VALID,23.2866,VALID,138,VALID,0.164453,
2009-05-01, 01:59:04,VALID,1009.82,VALID,0,VALID,91.2116,VALID,0,VALID,23.2654,VALID,138,VALID,0.376563,
2009-05-01, 02:00:04,VALID,1009.85,VALID,0,VALID,91.204,VALID,0.105969,VALID,23.2636,VALID,153,VALID,0.394141,
2009-05-01, 02:01:04,VALID,1009.84,VALID,0,VALID,91.2574,VALID,0.105969,VALID,23.2831,VALID,159,VALID,0.53125,
2009-05-01, 02:02:04,VALID,1009.83,VALID,0,VALID,91.265,VALID,0.105969,VALID,23.2618,VALID,160,VALID,0.380859,
2009-05-01, 02:03:04,VALID,1009.82,VALID,0,VALID,91.2879,VALID,0.105969,VALID,23.2618,VALID,160,VALID,0.427734,
2009-05-01, 02:04:04,VALID,1009.82,VALID,0,VALID,91.3031,VALID,0.105969,VALID,23.2636,VALID,160,VALID,0.102734,
2009-05-01, 02:05:04,VALID,1009.83,VALID,0,VALID,91.2955,VALID,0.105969,VALID,23.2636,VALID,160,VALID,0,
2009-05-01, 02:06:04,VALID,1009.83,VALID,0,VALID,91.3031,VALID,0.105969,VALID,23.2636,VALID,160,VALID,0,
2009-05-01, 02:07:04,VALID,1009.83,VALID,0,VALID,91.2879,VALID,0,VALID,23.2636,VALID,160,VALID,0,
2009-05-01, 02:08:04,VALID,1009.87,VALID,0,VALID,91.3184,VALID,0.105969,VALID,23.2441,VALID,160,VALID,0,
2009-05-01, 02:09:04,VALID,1009.88,VALID,0,VALID,91.3108,VALID,0.105969,VALID,23.2636,VALID,160,VALID,0,
2009-05-01, 02:10:04,VALID,1009.88,VALID,0,VALID,91.3413,VALID,0.105969,VALID,23.2636,VALID,160,VALID,0,
2009-05-01, 02:11:04,VALID,1009.88,VALID,0,VALID,91.3336,VALID,0.105969,VALID,23.2618,VALID,160,VALID,0,
2009-05-01, 02:12:04,VALID,1009.9,VALID,0,VALID,91.3489,VALID,0.105969,VALID,23.2636,VALID,160,VALID,0,
2009-05-01, 02:13:04,VALID,1009.87,VALID,0,VALID,91.3565,VALID,0.105969,VALID,23.2636,VALID,160,VALID,0,
2009-05-01, 02:14:04,VALID,1009.89,VALID,0,VALID,91.3413,VALID,0.105969,VALID,23.2441,VALID,160,VALID,0,
2009-05-01, 02:15:04,VALID,1009.85,VALID,0,VALID,91.3642,VALID,0,VALID,23.2459,VALID,160,VALID,0,
2009-05-01, 02:16:04,VALID,1009.89,VALID,0,VALID,91.3794,VALID,0,VALID,23.2671,VALID,160,VALID,0,
2009-05-01, 02:17:04,VALID,1009.88,VALID,0,VALID,91.387,VALID,0,VALID,23.2459,VALID,160,VALID,0,
2009-05-01, 02:18:04,VALID,1009.93,VALID,0,VALID,91.3718,VALID,0,VALID,23.2246,VALID,160,VALID,0,
2009-05-01, 02:19:04,VALID,1009.95,VALID,0,VALID,91.4328,VALID,0,VALID,23.2459,VALID,160,VALID,0,
2009-05-01, 02:20:04,VALID,1009.94,VALID,0,VALID,91.4328,VALID,0,VALID,23.2051,VALID,160,VALID,0,
2009-05-01, 02:21:04,VALID,1009.96,VALID,0,VALID,91.4328,VALID,0,VALID,23.2069,VALID,160,VALID,0,
2009-05-01, 02:22:04,VALID,1009.93,VALID,0,VALID,91.4557,VALID,0,VALID,23.2264,VALID,160,VALID,0,
2009-05-01, 02:23:04,VALID,1009.93,VALID,0,VALID,91.4557,VALID,0,VALID,23.1857,VALID,160,VALID,0,
2009-05-01, 02:24:04,VALID,1009.93,VALID,0,VALID,91.4633,VALID,0,VALID,23.1662,VALID,160,VALID,0,
2009-05-01, 02:25:04,VALID,1009.92,VALID,0,VALID,91.4557,VALID,0,VALID,23.2069,VALID,129,VALID,0,
2009-05-01, 02:26:04,VALID,1009.92,VALID,0,VALID,91.4709,VALID,0,VALID,23.1874,VALID,129,VALID,0,
2009-05-01, 02:27:04,VALID,1009.92,VALID,0,VALID,91.4785,VALID,0,VALID,23.1679,VALID,129,VALID,0,
2009-05-01, 02:28:04,VALID,1009.9,VALID,0,VALID,91.4938,VALID,0,VALID,23.1679,VALID,129,VALID,0,
2009-05-01, 02:29:04,VALID,1009.86,VALID,0,VALID,91.4938,VALID,0,VALID,23.1679,VALID,129,VALID,0,
2009-05-01, 02:30:04,VALID,1009.85,VALID,0,VALID,91.5243,VALID,0,VALID,23.1679,VALID,129,VALID,0,
2009-05-01, 02:31:04,VALID,1009.8,VALID,0,VALID,91.5853,VALID,0,VALID,23.1485,VALID,129,VALID,0,
2009-05-01, 02:32:04,VALID,1009.83,VALID,0,VALID,91.6082,VALID,0,VALID,23.1485,VALID,129,VALID,0,
2009-05-01, 02:33:04,VALID,1009.83,VALID,0,VALID,91.6539,VALID,0,VALID,23.1679,VALID,129,VALID,0,
2009-05-01, 02:34:04,VALID,1009.8,VALID,0,VALID,91.6844,VALID,0,VALID,23.1467,VALID,129,VALID,0,
2009-05-01, 02:35:04,VALID,1009.79,VALID,0,VALID,91.7149,VALID,0,VALID,23.1485,VALID,125,VALID,0,
2009-05-01, 02:36:04,VALID,1009.78,VALID,0,VALID,91.8598,VALID,0,VALID,23.1485,VALID,80,VALID,0,
2009-05-01, 02:37:04,VALID,1009.78,VALID,0,VALID,91.8446,VALID,0,VALID,23.129,VALID,41,VALID,0,
2009-05-01, 02:38:04,VALID,1009.78,VALID,0,VALID,91.8827,VALID,0,VALID,23.1485,VALID,33,VALID,0,
2009-05-01, 02:39:04,VALID,1009.8,VALID,0,VALID,91.8827,VALID,0,VALID,23.129,VALID,33,VALID,0,
2009-05-01, 02:40:04,VALID,1009.79,VALID,0,VALID,91.8903,VALID,0,VALID,23.1307,VALID,33,VALID,0,
2009-05-01, 02:41:04,VALID,1009.77,VALID,0,VALID,91.9132,VALID,0,VALID,23.129,VALID,29,VALID,0,
2009-05-01, 02:42:04,VALID,1009.82,VALID,0,VALID,91.9285,VALID,0,VALID,23.129,VALID,34,VALID,0,
2009-05-01, 02:43:04,VALID,1009.84,VALID,0,VALID,91.9513,VALID,0,VALID,23.129,VALID,21,VALID,0,
2009-05-01, 02:44:04,VALID,1009.85,VALID,0,VALID,91.9742,VALID,0,VALID,23.129,VALID,10,VALID,0,
2009-05-01, 02:45:04,VALID,1009.82,VALID,0,VALID,91.9666,VALID,0,VALID,23.1095,VALID,10,VALID,0,
2009-05-01, 02:46:04,VALID,1009.84,VALID,0,VALID,91.9895,VALID,0,VALID,23.129,VALID,10,VALID,0,
2009-05-01, 02:47:04,VALID,1009.85,VALID,0,VALID,92.0047,VALID,0,VALID,23.129,VALID,10,VALID,0,
2009-05-01, 02:48:04,VALID,1009.8,VALID,0,VALID,91.9742,VALID,0,VALID,23.129,VALID,10,VALID,0,
2009-05-01, 02:49:04,VALID,1009.81,VALID,0,VALID,92.02,VALID,0,VALID,23.1272,VALID,10,VALID,0,
2009-05-01, 02:50:04,VALID,1009.79,VALID,0,VALID,92.0276,VALID,0,VALID,23.1485,VALID,10,VALID,0,
2009-05-01, 02:51:04,VALID,1009.77,VALID,0,VALID,92.0352,VALID,0,VALID,23.1485,VALID,10,VALID,0,
2009-05-01, 02:52:04,VALID,1009.74,VALID,0,VALID,92.0428,VALID,0,VALID,23.1502,VALID,10,VALID,0,
2009-05-01, 02:53:04,VALID,1009.74,VALID,0,VALID,92.0276,VALID,0,VALID,23.1077,VALID,10,VALID,0,
2009-05-01, 02:54:04,VALID,1009.71,VALID,0,VALID,92.0428,VALID,0,VALID,23.1095,VALID,10,VALID,0,
2009-05-01, 02:55:04,VALID,1009.7,VALID,0,VALID,92.0581,VALID,0,VALID,23.09,VALID,10,VALID,0,
2009-05-01, 02:56:04,VALID,1009.71,VALID,0,VALID,92.0581,VALID,0,VALID,23.09,VALID,10,VALID,0,
2009-05-01, 02:57:04,VALID,1009.75,VALID,0,VALID,92.0886,VALID,0,VALID,23.0723,VALID,10,VALID,0,
2009-05-01, 02:58:04,VALID,1009.75,VALID,0,VALID,92.0581,VALID,0,VALID,23.0316,VALID,10,VALID,0,
2009-05-01, 02:59:04,VALID,1009.74,VALID,0,VALID,92.1115,VALID,0,VALID,23.0316,VALID,10,VALID,0,
2009-05-01, 03:00:04,VALID,1009.72,VALID,0,VALID,92.1267,VALID,0,VALID,23.0493,VALID,10,VALID,0,
2009-05-01, 03:01:04,VALID,1009.7,VALID,0,VALID,92.142,VALID,0.105969,VALID,23.0493,VALID,10,VALID,0,
2009-05-01, 03:02:04,VALID,1009.7,VALID,0,VALID,92.1267,VALID,0.105969,VALID,23.0298,VALID,10,VALID,0,
2009-05-01, 03:03:04,VALID,1009.7,VALID,0,VALID,92.1344,VALID,0.105969,VALID,23.0298,VALID,10,VALID,0,
2009-05-01, 03:04:04,VALID,1009.67,VALID,0,VALID,92.1649,VALID,0,VALID,23.0511,VALID,10,VALID,0,
2009-05-01, 03:05:04,VALID,1009.64,VALID,0,VALID,92.1572,VALID,0.105969,VALID,23.0298,VALID,10,VALID,0,
2009-05-01, 03:06:04,VALID,1009.63,VALID,0,VALID,92.1725,VALID,0,VALID,23.0298,VALID,10,VALID,0,
2009-05-01, 03:07:04,VALID,1009.62,VALID,0,VALID,92.1801,VALID,0,VALID,23.0298,VALID,10,VALID,0,
2009-05-01, 03:08:04,VALID,1009.59,VALID,0,VALID,92.2106,VALID,0.105969,VALID,23.0298,VALID,10,VALID,0,
2009-05-01, 03:09:04,VALID,1009.6,VALID,0,VALID,92.2182,VALID,0.105969,VALID,23.0298,VALID,10,VALID,0,
2009-05-01, 03:10:04,VALID,1009.62,VALID,0,VALID,92.2106,VALID,0.105969,VALID,23.0493,VALID,10,VALID,0,
2009-05-01, 03:11:04,VALID,1009.6,VALID,0,VALID,92.2259,VALID,0.105969,VALID,23.0298,VALID,10,VALID,0,
2009-05-01, 03:12:04,VALID,1009.62,VALID,0,VALID,92.2335,VALID,0.105969,VALID,23.0298,VALID,5,VALID,0,
2009-05-01, 03:13:04,VALID,1009.61,VALID,0,VALID,92.2411,VALID,0.105969,VALID,23.0103,VALID,3,VALID,0,
2009-05-01, 03:14:04,VALID,1009.61,VALID,0,VALID,92.2411,VALID,0.105969,VALID,22.9891,VALID,3,VALID,0,
2009-05-01, 03:15:04,VALID,1009.62,VALID,0,VALID,92.264,VALID,0,VALID,23.0316,VALID,353,VALID,0,
2009-05-01, 03:16:04,VALID,1009.63,VALID,0,VALID,92.2792,VALID,0,VALID,23.0705,VALID,336,VALID,0,
2009-05-01, 03:17:04,VALID,1009.68,VALID,0,VALID,92.2792,VALID,0,VALID,23.0705,VALID,286,VALID,0,
2009-05-01, 03:18:04,VALID,1009.72,VALID,0,VALID,92.2716,VALID,0,VALID,23.09,VALID,233,VALID,0,
2009-05-01, 03:19:04,VALID,1009.73,VALID,0,VALID,92.2792,VALID,0,VALID,23.0511,VALID,192,VALID,0,
2009-05-01, 03:20:04,VALID,1009.74,VALID,0,VALID,92.2792,VALID,0,VALID,23.0121,VALID,190,VALID,0,
2009-05-01, 03:21:04,VALID,1009.7,VALID,0,VALID,92.2716,VALID,0,VALID,22.9536,VALID,190,VALID,0,
2009-05-01, 03:22:04,VALID,1009.71,VALID,0,VALID,92.2716,VALID,0,VALID,22.9342,VALID,190,VALID,0,
2009-05-01, 03:23:04,VALID,1009.65,VALID,0,VALID,92.2564,VALID,0,VALID,22.8952,VALID,190,VALID,0,
2009-05-01, 03:24:04,VALID,1009.68,VALID,0,VALID,92.2716,VALID,0,VALID,22.9147,VALID,159,VALID,0,
2009-05-01, 03:25:04,VALID,1009.65,VALID,0,VALID,92.2869,VALID,0,VALID,22.9342,VALID,159,VALID,0,
2009-05-01, 03:26:04,VALID,1009.63,VALID,0,VALID,92.4013,VALID,0,VALID,22.9342,VALID,159,VALID,0,
2009-05-01, 03:27:04,VALID,1009.61,VALID,0,VALID,92.386,VALID,0,VALID,22.9147,VALID,159,VALID,0,
2009-05-01, 03:28:04,VALID,1009.6,VALID,0,VALID,92.3936,VALID,0,VALID,22.9359,VALID,159,VALID,0,
2009-05-01, 03:29:04,VALID,1009.57,VALID,0,VALID,92.4241,VALID,0,VALID,22.8952,VALID,159,VALID,0,
2009-05-01, 03:30:04,VALID,1009.54,VALID,0,VALID,92.4241,VALID,0,VALID,22.8757,VALID,159,VALID,0,
2009-05-01, 03:31:04,VALID,1009.53,VALID,0,VALID,92.4394,VALID,0,VALID,22.8935,VALID,159,VALID,0,
2009-05-01, 03:32:04,VALID,1009.55,VALID,0,VALID,92.4699,VALID,0,VALID,22.9342,VALID,159,VALID,0,
2009-05-01, 03:33:04,VALID,1009.53,VALID,0,VALID,92.4546,VALID,0,VALID,22.9731,VALID,159,VALID,0,
2009-05-01, 03:34:04,VALID,1009.53,VALID,0,VALID,92.4623,VALID,0.105969,VALID,22.9536,VALID,159,VALID,0,
2009-05-01, 03:35:04,VALID,1009.54,VALID,0,VALID,92.4699,VALID,0,VALID,22.9324,VALID,159,VALID,0,
2009-05-01, 03:36:04,VALID,1009.5,VALID,0,VALID,92.4699,VALID,0,VALID,22.9519,VALID,159,VALID,0,
2009-05-01, 03:37:04,VALID,1009.51,VALID,0,VALID,92.4775,VALID,0,VALID,22.9926,VALID,159,VALID,0,
2009-05-01, 03:38:04,VALID,1009.52,VALID,0,VALID,92.4928,VALID,0,VALID,22.9519,VALID,159,VALID,0,
2009-05-01, 03:39:04,VALID,1009.53,VALID,0,VALID,92.4928,VALID,0,VALID,22.9731,VALID,159,VALID,0,
2009-05-01, 03:40:04,VALID,1009.54,VALID,0,VALID,92.5004,VALID,0,VALID,22.9731,VALID,159,VALID,0,
2009-05-01, 03:41:04,VALID,1009.55,VALID,0,VALID,92.508,VALID,0,VALID,22.9926,VALID,159,VALID,0,
2009-05-01, 03:42:04,VALID,1009.54,VALID,0,VALID,92.508,VALID,0,VALID,22.9926,VALID,159,VALID,0,
2009-05-01, 03:43:04,VALID,1009.55,VALID,0,VALID,92.4928,VALID,0,VALID,22.9926,VALID,159,VALID,0,
2009-05-01, 03:44:04,VALID,1009.54,VALID,0,VALID,92.5156,VALID,0,VALID,22.9926,VALID,159,VALID,0,
2009-05-01, 03:45:04,VALID,1009.53,VALID,0,VALID,92.5004,VALID,0,VALID,23.0121,VALID,143,VALID,0,
2009-05-01, 03:46:04,VALID,1009.5,VALID,0,VALID,92.508,VALID,0,VALID,22.9926,VALID,143,VALID,0,
2009-05-01, 03:47:04,VALID,1009.49,VALID,0,VALID,92.4928,VALID,0,VALID,23.0121,VALID,143,VALID,0,
2009-05-01, 03:48:04,VALID,1009.5,VALID,0,VALID,92.4928,VALID,0,VALID,23.0121,VALID,143,VALID,0,
2009-05-01, 03:49:04,VALID,1009.52,VALID,0,VALID,92.5004,VALID,0,VALID,22.9909,VALID,143,VALID,0.589844,
2009-05-01, 03:50:04,VALID,1009.54,VALID,0,VALID,92.5233,VALID,0,VALID,22.9926,VALID,143,VALID,0.360156,
2009-05-01, 03:51:04,VALID,1009.52,VALID,0,VALID,92.5156,VALID,0,VALID,22.9731,VALID,143,VALID,0.00351562,
2009-05-01, 03:52:04,VALID,1009.52,VALID,0,VALID,92.5233,VALID,0,VALID,22.9731,VALID,143,VALID,0.00820312,
2009-05-01, 03:53:04,VALID,1009.48,VALID,0,VALID,92.5156,VALID,0,VALID,22.9714,VALID,120,VALID,0.276563,